SCP
0 0 0 0 0 0 0 0 0 0 0 0 0 0 0 0 0 0 0 0 0 0 0 0 0 0 0 0 0 0 0 0 0 0 0 0 0 0 0 0 0 0 0 0 -0
0 0 0 0 0 1 1 0 1 1 0 0 0 0 0 0 0 0 0 0 0 0 0 0 0 0 0 0 0 0 0 0 0 0 0 0 0 0 0 0 0 0 0 0 0
0 0 0 0 0 0 1 1 0 0 0 0 0 0 0 0 0 0 0 0 0 0 0 0 0 0 0 0 0 0 0 0 0 0 0 0 0 0 0 0 0 0 0 0 0
0 0 0 0 1 1 1 1 1 0 0 0 0 0 0 0 0 -0 0 0 0 0 0 0 0 0 0 0 0 0 0 0 0 0 0 0 0 0 0 0 0 0 -0 -0 0
0 0 0 0 1 1 1 1 1 0 0 0 0 0 0 0 0 0 0 0 0 0 0 0 0 0 0 0 0 0 0 0 0 0 0 0 0 0 0 0 0 0 0 -0 -0
0 0 0 0 1 1 1 0 0 0 0 1 0 0 0 0 0 0 0 0 0 0 0 0 0 0 0 0 0 0 0 0 0 0 0 0 0 0 0 0 0 0 0 0 0
0 0 1 0 0 1 1 1 0 0 0 0 0 0 0 0 0 0 -0 0 0 0 0 0 0 0 0 0 0 0 0 0 0 0 0 0 0 0 0 0 0 0 0 0 0
0 0 0 0 0 1 1 0 0 0 0 0 0 0 0 0 0 0 0 0 0 0 0 0 0 0 0 0 0 0 0 0 0 0 0 0 0 0 0 0 0 0 0 0 0
0 0 1 1 1 1 1 0 0 0 0 0 0 0 0 0 0 0 0 0 0 0 0 0 0 0 0 0 0 0 0 0 0 0 0 0 0 0 0 0 0 0 0 0 0
0 0 1 1 1 1 0 0 0 0 0 0 0 0 0 0 0 0 0 0 0 0 0 0 0 0 0 0 0 0 0 0 0 0 0 0 0 0 0 0 0 0 0 0 0
0 0 0 0 0 1 1 1 1 0 0 0 0 0 0 0 0 0 0 0 0 0 0 0 0 0 0 0 0 0 0 0 0 0 0 0 0 -0 0 -0 0 0 0 0 0
0 0 0 0 0 1 1 0 0 0 0 0 0 0 0 0 0 0 0 0 0 0 0 0 0 0 0 0 0 0 0 0 0 0 0 0 0 0 -0 0 0 0 0 0 0
0 0 0 0 0 1 0 0 0 0 0 0 0 0 0 0 0 0 0 0 0 0 0 0 0 0 0 0 0 0 0 0 0 0 0 0 0 0 -0 -0 0 0 0 0 0
0 0 0 0 1 0 0 0 0 0 0 0 0 0 0 0 0 0 0 0 0 0 0 0 0 0 0 0 0 0 0 0 0 0 0 -0 -0 -0 0 0 0 0 0 0 0
0 0 0 0 0 0 0 0 0 0 0 0 0 0 0 0 0 0 0 0 0 0 0 0 0 0 0 0 0 0 0 0 0 0 0 0 0 -0 0 0 0 -0 -0 0 0
0 0 0 0 0 0 0 0 0 0 0 0 0 0 0 0 0 0 0 0 0 0 0 0 0 0 0 0 0 0 0 0 0 0 0 0 0 -0 -0 0 0 -0 0 0 0
0 0 0 0 0 0 0 0 -0 0 0 0 0 0 0 0 0 0 0 0 0 0 0 0 0 0 0 0 0 0 0 0 0 0 0 0 0 -0 0 0 0 0 0 0 0
0 0 0 0 0 0 0 0 0 0 0 0 0 0 0 0 0 0 0 0 0 0 0 0 0 0 0 0 0 0 0 0 0 0 0 0 0 0 -0 0 0 0 0 0 0
0 0 0 0 0 0 0 -0 0 0 0 0 0 0 0 0 0 0 0 0 0 0 0 0 0 0 0 0 0 0 0 0 0 0 0 0 -0 -0 -0 0 0 0 0 0 0
0 0 0 0 0 0 0 -0 -0 0 0 0 0 0 0 0 0 0 0 0 0 0 0 0 0 0 0 0 0 0 0 0 0 0 0 0 0 0 0 0 0 0 0 0 -0
0 0 0 0 0 0 -0 -0 -0 0 0 0 0 0 0 0 0 0 0 0 0 0 0 0 0 0 0 0 0 0 0 0 0 0 0 0 0 -0 0 0 0 0 0 0 -0
0 0 0 0 0 0 -0 0 -0 0 0 0 0 0 0 0 0 0 0 0 0 0 0 0 0 0 0 0 0 0 0 0 0 0 0 0 -0 0 0 0 0 0 0 0 0
0 0 0 0 0 0 0 0 -0 0 0 0 0 0 0 0 0 0 0 0 0 0 0 0 0 0 0 0 0 0 0 0 0 0 0 0 -0 0 0 0 0 0 0 0 0
0 0 0 0 0 0 0 -0 -0 -0 0 0 0 0 0 0 0 0 0 0 0 0 0 0 0 0 0 0 0 0 0 0 0 0 0 0 0 0 0 0 0 0 0 0 0
0 0 0 0 0 0 0 -0 -0 0 0 0 0 0 0 0 0 0 0 0 0 0 0 0 0 0 0 0 0 0 0 0 0 0 0 0 0 0 0 0 0 0 -0 0 0
0 0 0 0 0 0 0 0 0 0 0 0 0 0 0 0 0 0 0 0 0 0 0 0 0 0 0 0 0 0 0 0 0 0 0 0 0 0 0 0 0 0 0 -0 0
0 0 0 0 0 0 0 0 0 0 0 0 0 0 0 0 0 0 0 0 0 0 0 0 0 0 0 0 0 0 0 0 0 0 0 0 0 0 0 0 0 0 0 0 -0
Wind_Speed_500mb
51 54 62 69 67 69 65 65 64 68 67 60 53 46 44 46 45 46 49 42 48 37 23 28 31 31 21 16 15 15 10 15 13 10 5 21 17 11 10 14 12 16 6 8 43
55 55 57 66 64 67 68 68 64 69 68 63 56 46 47 50 46 52 59 46 40 35 32 31 41 33 15 15 14 11 15 14 3 4 3 18 19 23 14 14 13 15 19 22 46
57 53 51 61 64 67 67 67 69 72 69 68 60 47 48 51 47 54 64 51 45 42 32 27 33 27 22 16 22 11 20 10 6 1 3 8 15 17 16 16 25 32 32 35 52
58 55 52 56 64 66 70 69 63 70 64 67 60 51 50 54 18 36 66 55 49 40 34 34 30 23 16 20 26 23 9 10 8 5 2 2 6 13 31 10 11 20 30 41 59
59 58 52 53 62 66 67 71 65 69 80 69 64 56 52 57 50 8 20 50 57 49 45 41 37 32 16 28 26 30 21 16 20 21 8 4 11 14 25 20 11 27 33 43 56
61 57 53 52 61 66 67 64 65 64 73 78 65 61 63 56 47 42 1 44 67 58 51 40 28 33 26 17 34 32 25 18 14 17 12 6 6 5 8 27 18 28 36 43 53
63 59 54 51 57 62 65 62 60 59 66 69 73 68 62 66 36 62 33 17 65 60 47 43 23 33 8 9 14 14 24 14 27 18 6 9 9 16 11 18 23 29 34 42 51
66 60 56 52 55 61 63 68 55 52 61 73 69 81 46 63 43 64 52 26 56 51 40 50 36 41 2 12 10 15 14 31 14 25 15 12 27 32 16 20 29 31 33 38 52
63 64 60 54 54 57 60 59 60 57 59 69 79 85 36 49 74 56 59 50 50 38 42 43 27 20 11 16 8 7 23 35 21 10 17 17 21 16 9 18 31 33 37 40 41
61 61 61 58 56 58 54 50 46 44 51 62 86 51 43 71 81 68 62 57 54 39 34 37 18 17 11 20 28 17 25 14 35 12 16 42 41 33 33 22 30 31 34 39 43
62 61 62 62 57 54 50 37 33 24 53 57 19 51 63 74 82 64 69 55 44 49 22 24 17 40 41 34 22 30 30 38 17 10 17 40 43 42 52 31 32 36 39 42 46
64 61 60 60 56 52 53 44 66 16 25 80 71 64 66 87 31 75 77 36 44 25 32 15 39 38 29 32 28 20 28 27 12 6 12 24 35 42 59 59 44 44 43 47 41
63 58 53 51 52 54 63 76 38 34 13 49 68 62 76 86 39 71 76 43 46 31 34 37 24 25 30 26 19 22 37 31 10 9 2 6 28 49 54 71 71 57 54 42 51
62 57 51 42 46 58 64 61 55 41 10 13 31 34 68 55 24 90 64 45 14 26 37 22 24 34 27 36 34 17 8 14 19 10 8 14 16 32 33 46 56 57 53 55 52
63 59 55 53 34 57 46 59 45 45 23 28 37 41 70 55 61 52 64 22 38 26 14 21 33 39 43 38 36 7 18 17 9 9 5 11 9 19 21 33 36 64 67 64 70
63 59 57 51 44 36 36 30 35 12 15 19 20 28 44 27 50 49 26 32 36 29 9 8 8 20 20 27 36 32 24 26 14 5 11 23 21 32 30 33 30 48 59 70 79
61 59 56 58 34 42 22 31 13 15 7 18 21 37 60 29 18 50 23 26 23 23 25 10 15 3 23 25 35 15 22 7 5 8 16 3 25 43 21 35 37 43 57 68 81
59 52 47 46 37 33 37 8 14 12 19 5 21 56 28 48 38 42 47 25 18 26 28 24 14 20 10 17 17 14 17 12 19 15 11 4 20 9 26 48 50 40 41 43 57
50 42 39 45 40 26 28 8 9 8 18 26 37 45 23 30 18 35 49 46 25 40 25 30 12 4 8 13 32 10 9 7 7 3 2 11 15 19 32 27 27 45 53 50 47
52 34 33 40 43 31 7 30 10 15 15 36 26 27 28 25 31 32 48 47 32 27 25 26 13 1 9 14 10 27 27 9 4 10 13 18 15 19 22 26 31 30 46 54 60
41 19 22 42 45 23 12 17 13 21 31 41 23 18 35 48 46 52 58 38 33 28 20 29 13 7 12 10 18 14 11 4 2 6 9 9 14 9 16 21 19 17 22 37 40
40 10 45 63 11 6 11 14 12 7 43 18 20 28 48 59 35 27 40 25 49 36 35 7 12 13 5 3 13 7 17 17 13 13 10 10 24 10 7 7 8 21 25 25 31
33 14 50 59 12 12 10 11 20 11 16 18 16 14 42 33 22 16 28 15 59 38 38 20 11 14 8 7 7 17 20 25 9 2 17 12 20 2 12 7 3 10 21 38 44
22 8 13 32 12 19 13 11 14 28 15 11 12 34 39 23 14 18 35 13 59 55 18 18 11 17 23 18 25 14 33 35 29 9 34 32 58 35 19 14 5 8 29 48 43
12 7 12 13 18 18 21 19 14 13 15 15 7 46 48 13 18 22 20 17 23 42 16 11 9 11 7 23 21 31 42 39 42 59 28 58 52 54 41 40 52 34 30 40 38
12 9 10 2 20 21 21 16 9 10 17 21 33 48 44 34 24 55 41 28 28 27 24 6 9 16 7 19 15 15 38 51 59 58 50 57 47 39 26 16 25 32 29 36 37
11 15 10 8 9 18 13 16 8 15 23 19 42 50 49 25 34 57 49 43 42 43 30 21 13 11 13 18 14 10 41 46 44 47 50 41 64 25 19 23 39 45 43 42 49
Wind_Direction_500mb
230 236 225 227 227 225 225 225 223 221 221 216 220 219 221 229 239 225 220 231 231 232 225 219 214 208 200 200 178 145 215 212 208 194 187 162 182 174 188 143 169 188 152 181 178
227 234 233 225 227 224 224 223 223 221 221 218 218 218 219 224 234 233 230 222 222 222 231 211 210 197 199 194 179 166 226 201 42 334 354 185 199 170 173 169 193 189 192 165 176
226 230 235 225 224 220 219 222 222 224 221 221 218 216 214 221 233 236 230 220 215 218 217 217 198 189 203 196 188 165 222 158 50 189 297 197 212 187 186 202 210 206 187 180 177
225 227 233 224 221 219 220 219 223 219 215 219 217 214 215 217 235 241 236 220 207 208 209 208 192 193 196 191 183 190 197 176 138 48 143 167 175 212 218 237 221 203 200 184 183
222 223 228 223 217 218 218 224 225 223 219 217 215 210 209 212 221 250 213 207 207 203 199 195 187 195 193 200 179 217 178 150 129 75 60 320 257 234 239 243 226 195 196 191 190
219 220 222 220 216 214 218 222 224 222 217 215 211 208 208 222 220 214 88 194 197 199 201 194 199 186 220 200 205 200 185 170 181 195 56 13 322 246 247 212 220 197 200 198 197
218 218 218 214 213 211 215 215 219 220 218 216 211 210 211 216 223 216 226 198 193 196 196 193 196 183 191 151 177 164 184 192 207 182 93 3 257 236 262 213 202 205 203 202 203
216 216 215 211 209 209 213 215 216 223 220 215 212 213 218 211 212 213 210 197 190 197 195 197 200 193 155 153 128 192 218 203 171 176 193 355 273 285 265 223 212 210 210 206 209
214 215 213 210 207 208 211 216 217 222 224 216 213 196 204 193 204 202 210 191 182 190 196 191 178 163 153 200 123 212 210 216 209 213 184 208 271 279 338 250 244 217 213 214 214
210 211 208 206 204 206 206 208 214 223 226 213 219 193 166 182 194 195 196 196 167 162 169 186 187 179 171 204 193 169 196 204 216 189 212 229 245 269 276 265 257 252 231 222 216
205 206 204 203 202 202 198 187 199 216 220 207 251 197 161 174 185 180 177 157 157 164 175 180 187 204 193 198 229 199 204 211 215 130 208 228 238 254 258 266 266 250 242 232 223
199 201 202 203 203 201 199 197 202 205 208 210 219 197 169 167 149 166 166 147 162 177 158 160 218 202 196 199 213 177 198 207 130 106 217 244 263 256 258 253 255 257 247 235 228
194 195 195 200 203 203 205 213 200 203 228 207 197 193 162 170 160 167 167 160 166 167 186 196 195 175 178 191 190 193 206 193 188 138 282 321 271 261 256 250 248 254 249 241 227
193 192 188 182 191 200 212 213 215 216 229 218 187 192 164 160 164 168 167 151 155 175 178 220 180 177 195 196 190 186 217 151 135 145 224 189 284 260 250 244 230 241 240 235 230
197 197 193 194 191 198 204 216 214 216 219 168 177 192 160 167 137 178 172 156 156 149 161 181 175 184 192 198 189 136 152 134 138 115 11 206 257 262 241 246 237 233 239 236 233
198 201 196 196 209 206 206 211 192 219 233 158 172 186 154 145 165 153 159 161 160 141 90 108 151 171 177 177 166 125 89 62 53 74 245 218 212 263 239 239 243 239 233 232 235
198 197 199 204 209 207 197 184 205 208 201 159 175 168 167 162 139 158 162 149 157 151 167 141 159 116 162 105 142 130 146 105 181 197 245 329 220 247 260 245 240 236 230 231 236
187 194 203 211 203 216 197 150 255 144 180 190 181 157 156 153 165 172 159 163 169 178 152 173 179 171 167 161 165 153 171 168 200 213 229 65 238 246 252 257 257 256 250 244 238
179 183 199 206 193 187 173 236 264 187 143 157 173 152 143 159 138 160 179 178 167 165 155 177 162 132 131 152 149 158 186 69 106 46 221 224 277 251 262 257 260 252 246 251 246
173 172 201 198 189 184 174 209 255 302 159 160 165 167 156 151 144 168 172 188 178 196 143 159 122 135 129 100 46 182 149 155 123 195 243 240 265 256 287 272 232 244 245 250 254
173 161 199 179 178 175 192 219 256 275 240 169 160 160 169 167 166 168 171 170 170 175 179 165 124 124 143 191 166 143 173 100 165 237 240 282 266 205 269 284 306 284 284 279 273
157 166 167 163 162 169 216 198 191 271 270 204 159 180 164 168 163 160 181 170 160 155 158 124 112 131 103 270 166 142 164 177 194 191 250 309 254 177 198 339 274 301 307 309 299
160 127 171 174 176 197 186 185 206 191 261 193 168 182 160 156 151 124 155 145 167 173 161 170 125 116 101 62 317 210 195 204 196 81 206 202 261 83 227 192 148 311 347 352 343
154 137 162 203 219 194 182 199 218 214 242 249 151 139 147 142 94 150 156 159 176 177 159 144 156 177 186 190 138 183 194 197 200 199 229 228 259 236 241 239 298 335 328 328 324
158 159 177 180 194 208 184 169 193 213 219 225 144 156 150 130 128 147 139 120 166 170 152 156 133 131 92 146 153 192 195 188 201 225 213 238 243 251 255 266 285 298 303 302 318
145 159 147 192 142 169 190 205 197 191 187 205 162 166 165 176 185 173 158 161 168 183 164 151 133 143 74 151 157 170 202 198 208 225 232 249 266 264 252 298 273 278 274 293 302
159 148 141 149 153 183 208 188 204 213 227 241 170 165 191 185 158 162 150 148 157 168 166 161 138 141 165 163 142 266 209 201 210 218 224 234 241 250 270 259 259 266 269 261 281
Wind_Speed_850mb
51 54 62 69 67 69 65 65 64 68 67 60 53 46 44 46 45 46 49 42 48 37 23 28 31 31 21 16 15 15 10 15 13 10 5 21 17 11 10 14 12 16 6 8 43
55 55 57 66 64 67 68 68 64 69 68 63 56 46 47 50 46 52 59 46 40 35 32 31 41 33 15 15 14 11 15 14 3 4 3 18 19 23 14 14 13 15 19 22 46
57 53 51 61 64 67 67 67 69 72 69 68 60 47 48 51 47 54 64 51 45 42 32 27 33 27 22 16 22 11 20 10 6 1 3 8 15 17 16 16 25 32 32 35 52
58 55 52 56 64 66 70 69 63 70 64 67 60 51 50 54 18 36 66 55 49 40 34 34 30 23 16 20 26 23 9 10 8 5 2 2 6 13 31 10 11 20 30 41 59
59 58 52 53 62 66 67 71 65 69 80 69 64 56 52 57 50 8 20 50 57 49 45 41 37 32 16 28 26 30 21 16 20 21 8 4 11 14 25 20 11 27 33 43 56
61 57 53 52 61 66 67 64 65 64 73 78 65 61 63 56 47 42 1 44 67 58 51 40 28 33 26 17 34 32 25 18 14 17 12 6 6 5 8 27 18 28 36 43 53
63 59 54 51 57 62 65 62 60 59 66 69 73 68 62 66 36 62 33 17 65 60 47 43 23 33 8 9 14 14 24 14 27 18 6 9 9 16 11 18 23 29 34 42 51
66 60 56 52 55 61 63 68 55 52 61 73 69 81 46 63 43 64 52 26 56 51 40 50 36 41 2 12 10 15 14 31 14 25 15 12 27 32 16 20 29 31 33 38 52
63 64 60 54 54 57 60 59 60 57 59 69 79 85 36 49 74 56 59 50 50 38 42 43 27 20 11 16 8 7 23 35 21 10 17 17 21 16 9 18 31 33 37 40 41
61 61 61 58 56 58 54 50 46 44 51 62 86 51 43 71 81 68 62 57 54 39 34 37 18 17 11 20 28 17 25 14 35 12 16 42 41 33 33 22 30 31 34 39 43
62 61 62 62 57 54 50 37 33 24 53 57 19 51 63 74 82 64 69 55 44 49 22 24 17 40 41 34 22 30 30 38 17 10 17 40 43 42 52 31 32 36 39 42 46
64 61 60 60 56 52 53 44 66 16 25 80 71 64 66 87 31 75 77 36 44 25 32 15 39 38 29 32 28 20 28 27 12 6 12 24 35 42 59 59 44 44 43 47 41
63 58 53 51 52 54 63 76 38 34 13 49 68 62 76 86 39 71 76 43 46 31 34 37 24 25 30 26 19 22 37 31 10 9 2 6 28 49 54 71 71 57 54 42 51
62 57 51 42 46 58 64 61 55 41 10 13 31 34 68 55 24 90 64 45 14 26 37 22 24 34 27 36 34 17 8 14 19 10 8 14 16 32 33 46 56 57 53 55 52
63 59 55 53 34 57 46 59 45 45 23 28 37 41 70 55 61 52 64 22 38 26 14 21 33 39 43 38 36 7 18 17 9 9 5 11 9 19 21 33 36 64 67 64 70
63 59 57 51 44 36 36 30 35 12 15 19 20 28 44 27 50 49 26 32 36 29 9 8 8 20 20 27 36 32 24 26 14 5 11 23 21 32 30 33 30 48 59 70 79
61 59 56 58 34 42 22 31 13 15 7 18 21 37 60 29 18 50 23 26 23 23 25 10 15 3 23 25 35 15 22 7 5 8 16 3 25 43 21 35 37 43 57 68 81
59 52 47 46 37 33 37 8 14 12 19 5 21 56 28 48 38 42 47 25 18 26 28 24 14 20 10 17 17 14 17 12 19 15 11 4 20 9 26 48 50 40 41 43 57
50 42 39 45 40 26 28 8 9 8 18 26 37 45 23 30 18 35 49 46 25 40 25 30 12 4 8 13 32 10 9 7 7 3 2 11 15 19 32 27 27 45 53 50 47
52 34 33 40 43 31 7 30 10 15 15 36 26 27 28 25 31 32 48 47 32 27 25 26 13 1 9 14 10 27 27 9 4 10 13 18 15 19 22 26 31 30 46 54 60
41 19 22 42 45 23 12 17 13 21 31 41 23 18 35 48 46 52 58 38 33 28 20 29 13 7 12 10 18 14 11 4 2 6 9 9 14 9 16 21 19 17 22 37 40
40 10 45 63 11 6 11 14 12 7 43 18 20 28 48 59 35 27 40 25 49 36 35 7 12 13 5 3 13 7 17 17 13 13 10 10 24 10 7 7 8 21 25 25 31
33 14 50 59 12 12 10 11 20 11 16 18 16 14 42 33 22 16 28 15 59 38 38 20 11 14 8 7 7 17 20 25 9 2 17 12 20 2 12 7 3 10 21 38 44
22 8 13 32 12 19 13 11 14 28 15 11 12 34 39 23 14 18 35 13 59 55 18 18 11 17 23 18 25 14 33 35 29 9 34 32 58 35 19 14 5 8 29 48 43
12 7 12 13 18 18 21 19 14 13 15 15 7 46 48 13 18 22 20 17 23 42 16 11 9 11 7 23 21 31 42 39 42 59 28 58 52 54 41 40 52 34 30 40 38
12 9 10 2 20 21 21 16 9 10 17 21 33 48 44 34 24 55 41 28 28 27 24 6 9 16 7 19 15 15 38 51 59 58 50 57 47 39 26 16 25 32 29 36 37
11 15 10 8 9 18 13 16 8 15 23 19 42 50 49 25 34 57 49 43 42 43 30 21 13 11 13 18 14 10 41 46 44 47 50 41 64 25 19 23 39 45 43 42 49
Wind_Direction_850mb
230 236 225 227 227 225 225 225 223 221 221 216 220 219 221 229 239 225 220 231 231 232 225 219 214 208 200 200 178 145 215 212 208 194 187 162 182 174 188 143 169 188 152 181 178
227 234 233 225 227 224 224 223 223 221 221 218 218 218 219 224 234 233 230 222 222 222 231 211 210 197 199 194 179 166 226 201 42 334 354 185 199 170 173 169 193 189 192 165 176
226 230 235 225 224 220 219 222 222 224 221 221 218 216 214 221 233 236 230 220 215 218 217 217 198 189 203 196 188 165 222 158 50 189 297 197 212 187 186 202 210 206 187 180 177
225 227 233 224 221 219 220 219 223 219 215 219 217 214 215 217 235 241 236 220 207 208 209 208 192 193 196 191 183 190 197 176 138 48 143 167 175 212 218 237 221 203 200 184 183
222 223 228 223 217 218 218 224 225 223 219 217 215 210 209 212 221 250 213 207 207 203 199 195 187 195 193 200 179 217 178 150 129 75 60 320 257 234 239 243 226 195 196 191 190
219 220 222 220 216 214 218 222 224 222 217 215 211 208 208 222 220 214 88 194 197 199 201 194 199 186 220 200 205 200 185 170 181 195 56 13 322 246 247 212 220 197 200 198 197
218 218 218 214 213 211 215 215 219 220 218 216 211 210 211 216 223 216 226 198 193 196 196 193 196 183 191 151 177 164 184 192 207 182 93 3 257 236 262 213 202 205 203 202 203
216 216 215 211 209 209 213 215 216 223 220 215 212 213 218 211 212 213 210 197 190 197 195 197 200 193 155 153 128 192 218 203 171 176 193 355 273 285 265 223 212 210 210 206 209
214 215 213 210 207 208 211 216 217 222 224 216 213 196 204 193 204 202 210 191 182 190 196 191 178 163 153 200 123 212 210 216 209 213 184 208 271 279 338 250 244 217 213 214 214
210 211 208 206 204 206 206 208 214 223 226 213 219 193 166 182 194 195 196 196 167 162 169 186 187 179 171 204 193 169 196 204 216 189 212 229 245 269 276 265 257 252 231 222 216
205 206 204 203 202 202 198 187 199 216 220 207 251 197 161 174 185 180 177 157 157 164 175 180 187 204 193 198 229 199 204 211 215 130 208 228 238 254 258 266 266 250 242 232 223
199 201 202 203 203 201 199 197 202 205 208 210 219 197 169 167 149 166 166 147 162 177 158 160 218 202 196 199 213 177 198 207 130 106 217 244 263 256 258 253 255 257 247 235 228
194 195 195 200 203 203 205 213 200 203 228 207 197 193 162 170 160 167 167 160 166 167 186 196 195 175 178 191 190 193 206 193 188 138 282 321 271 261 256 250 248 254 249 241 227
193 192 188 182 191 200 212 213 215 216 229 218 187 192 164 160 164 168 167 151 155 175 178 220 180 177 195 196 190 186 217 151 135 145 224 189 284 260 250 244 230 241 240 235 230
197 197 193 194 191 198 204 216 214 216 219 168 177 192 160 167 137 178 172 156 156 149 161 181 175 184 192 198 189 136 152 134 138 115 11 206 257 262 241 246 237 233 239 236 233
198 201 196 196 209 206 206 211 192 219 233 158 172 186 154 145 165 153 159 161 160 141 90 108 151 171 177 177 166 125 89 62 53 74 245 218 212 263 239 239 243 239 233 232 235
198 197 199 204 209 207 197 184 205 208 201 159 175 168 167 162 139 158 162 149 157 151 167 141 159 116 162 105 142 130 146 105 181 197 245 329 220 247 260 245 240 236 230 231 236
187 194 203 211 203 216 197 150 255 144 180 190 181 157 156 153 165 172 159 163 169 178 152 173 179 171 167 161 165 153 171 168 200 213 229 65 238 246 252 257 257 256 250 244 238
179 183 199 206 193 187 173 236 264 187 143 157 173 152 143 159 138 160 179 178 167 165 155 177 162 132 131 152 149 158 186 69 106 46 221 224 277 251 262 257 260 252 246 251 246
173 172 201 198 189 184 174 209 255 302 159 160 165 167 156 151 144 168 172 188 178 196 143 159 122 135 129 100 46 182 149 155 123 195 243 240 265 256 287 272 232 244 245 250 254
173 161 199 179 178 175 192 219 256 275 240 169 160 160 169 167 166 168 171 170 170 175 179 165 124 124 143 191 166 143 173 100 165 237 240 282 266 205 269 284 306 284 284 279 273
157 166 167 163 162 169 216 198 191 271 270 204 159 180 164 168 163 160 181 170 160 155 158 124 112 131 103 270 166 142 164 177 194 191 250 309 254 177 198 339 274 301 307 309 299
160 127 171 174 176 197 186 185 206 191 261 193 168 182 160 156 151 124 155 145 167 173 161 170 125 116 101 62 317 210 195 204 196 81 206 202 261 83 227 192 148 311 347 352 343
154 137 162 203 219 194 182 199 218 214 242 249 151 139 147 142 94 150 156 159 176 177 159 144 156 177 186 190 138 183 194 197 200 199 229 228 259 236 241 239 298 335 328 328 324
158 159 177 180 194 208 184 169 193 213 219 225 144 156 150 130 128 147 139 120 166 170 152 156 133 131 92 146 153 192 195 188 201 225 213 238 243 251 255 266 285 298 303 302 318
145 159 147 192 142 169 190 205 197 191 187 205 162 166 165 176 185 173 158 161 168 183 164 151 133 143 74 151 157 170 202 198 208 225 232 249 266 264 252 298 273 278 274 293 302
159 148 141 149 153 183 208 188 204 213 227 241 170 165 191 185 158 162 150 148 157 168 166 161 138 141 165 163 142 266 209 201 210 218 224 234 241 250 270 259 259 266 269 261 281